Time,TemperatureF,DewpointF,PressureIn,WindDirection,WindDirectionDegrees,WindSpeedMPH,WindSpeedGustMPH,Humidity,HourlyPrecipIn,Conditions,Clouds,dailyrainin,SoftwareType,DateUTC
2013-12-25 00:01:00,16.4,13.4,30.57,NNE,30,0.0,0.0,88,0.00,,,0.00,perl,2013-12-25 05:01:00,
2013-12-25 00:02:00,16.4,13.4,30.57,NNE,30,0.0,0.0,88,0.00,,,0.00,perl,2013-12-25 05:02:00,
2013-12-25 00:03:00,16.3,13.3,30.57,NNE,30,0.0,0.0,88,0.00,,,0.00,perl,2013-12-25 05:03:00,
2013-12-25 00:04:00,16.3,13.3,30.57,NNE,30,0.0,0.0,88,0.00,,,0.00,perl,2013-12-25 05:04:00,
2013-12-25 00:09:00,16.3,13.3,30.57,NNE,30,0.0,0.0,88,0.00,,,0.00,perl,2013-12-25 05:09:00,
2013-12-25 00:14:00,16.3,13.6,30.56,NNE,30,0.0,0.0,89,0.00,,,0.00,perl,2013-12-25 05:14:00,
2013-12-25 00:19:00,16.3,13.6,30.56,NNE,30,0.0,0.0,89,0.00,,,0.00,perl,2013-12-25 05:19:00,
2013-12-25 00:24:00,16.3,13.6,30.56,NNE,30,0.0,0.0,89,0.00,,,0.00,perl,2013-12-25 05:24:00,
2013-12-25 00:29:00,16.2,13.5,30.56,NNE,30,0.0,0.0,89,0.00,,,0.00,perl,2013-12-25 05:29:00,
2013-12-25 00:34:00,16.2,13.5,30.56,NNE,30,0.0,0.0,89,0.00,,,0.00,perl,2013-12-25 05:34:00,
2013-12-25 00:39:00,16.1,13.6,30.56,NNE,30,0.0,0.0,90,0.00,,,0.00,perl,2013-12-25 05:39:00,
2013-12-25 00:44:00,16.0,13.5,30.56,NNE,30,0.0,0.0,90,0.00,,,0.00,perl,2013-12-25 05:44:00,
2013-12-25 00:49:00,16.1,13.6,30.56,NNE,30,0.0,0.0,90,0.00,,,0.00,perl,2013-12-25 05:49:00,
2013-12-25 00:54:00,16.1,13.6,30.56,NNE,30,0.0,0.0,90,0.00,,,0.00,perl,2013-12-25 05:54:00,
2013-12-25 00:59:00,16.0,13.5,30.55,NNE,30,0.0,0.0,90,0.00,,,0.00,perl,2013-12-25 05:59:00,
2013-12-25 01:04:00,15.9,13.4,30.55,NNE,30,0.0,0.0,90,0.00,,,0.00,perl,2013-12-25 06:04:00,
2013-12-25 01:09:00,15.9,13.7,30.55,NNE,30,0.0,0.0,91,0.00,,,0.00,perl,2013-12-25 06:09:00,
2013-12-25 01:14:00,15.9,13.7,30.56,NNE,30,0.0,0.0,91,0.00,,,0.00,perl,2013-12-25 06:14:00,
2013-12-25 01:19:00,15.8,13.6,30.56,NNE,30,0.0,0.0,91,0.00,,,0.00,perl,2013-12-25 06:19:00,
2013-12-25 01:24:00,15.8,13.6,30.56,NNE,30,0.0,0.0,91,0.00,,,0.00,perl,2013-12-25 06:24:00,
2013-12-25 01:29:00,15.7,13.5,30.56,NNE,30,0.0,0.0,91,0.00,,,0.00,perl,2013-12-25 06:29:00,
2013-12-25 01:34:00,15.6,13.4,30.56,NNE,30,0.0,0.0,91,0.00,,,0.00,perl,2013-12-25 06:34:00,
2013-12-25 01:39:00,15.6,13.4,30.56,NNE,30,0.0,0.0,91,0.00,,,0.00,perl,2013-12-25 06:39:00,
2013-12-25 01:44:00,15.6,13.4,30.56,NNE,30,0.0,0.0,91,0.00,,,0.00,perl,2013-12-25 06:44:00,
2013-12-25 01:49:00,15.7,13.5,30.56,NNE,30,0.0,0.0,91,0.00,,,0.00,perl,2013-12-25 06:49:00,
2013-12-25 01:54:00,15.7,13.5,30.56,NNE,30,0.0,0.0,91,0.00,,,0.00,perl,2013-12-25 06:54:00,
2013-12-25 01:59:00,15.6,13.4,30.55,NNE,30,0.0,0.0,91,0.00,,,0.00,perl,2013-12-25 06:59:00,
2013-12-25 02:04:00,15.5,13.3,30.55,NNE,30,0.0,0.0,91,0.00,,,0.00,perl,2013-12-25 07:04:00,
2013-12-25 02:09:00,15.5,13.3,30.55,NNE,30,0.0,0.0,91,0.00,,,0.00,perl,2013-12-25 07:09:00,
2013-12-25 02:14:00,15.4,13.2,30.55,NNE,30,0.0,0.0,91,0.00,,,0.00,perl,2013-12-25 07:14:00,
2013-12-25 02:19:00,15.4,13.2,30.55,NNE,30,0.0,0.0,91,0.00,,,0.00,perl,2013-12-25 07:19:00,
2013-12-25 02:24:00,15.3,13.1,30.55,NNE,30,0.0,0.0,91,0.00,,,0.00,perl,2013-12-25 07:24:00,
2013-12-25 02:29:00,15.3,13.1,30.55,NNE,30,0.0,0.0,91,0.00,,,0.00,perl,2013-12-25 07:29:00,
2013-12-25 02:34:00,15.5,13.3,30.55,NNE,30,0.0,0.0,91,0.00,,,0.00,perl,2013-12-25 07:34:00,
2013-12-25 02:39:00,15.8,13.8,30.55,NNE,30,0.0,0.0,92,0.00,,,0.00,perl,2013-12-25 07:39:00,
2013-12-25 02:44:00,15.9,13.7,30.55,NNE,30,0.0,0.0,91,0.00,,,0.00,perl,2013-12-25 07:44:00,
2013-12-25 02:49:00,16.0,13.8,30.55,NNE,30,0.0,0.0,91,0.00,,,0.00,perl,2013-12-25 07:49:00,
2013-12-25 02:54:00,16.1,13.9,30.55,NNE,30,0.0,0.0,91,0.00,,,0.00,perl,2013-12-25 07:54:00,
2013-12-25 02:59:00,16.1,13.9,30.55,NNE,30,0.0,0.0,91,0.00,,,0.00,perl,2013-12-25 07:59:00,
2013-12-25 03:04:00,16.1,13.9,30.55,NNE,30,0.0,0.0,91,0.00,,,0.00,perl,2013-12-25 08:04:00,
2013-12-25 03:09:00,16.1,13.9,30.55,NNE,30,0.0,0.0,91,0.00,,,0.00,perl,2013-12-25 08:09:00,
2013-12-25 03:14:00,16.0,13.8,30.55,NNE,30,0.0,0.0,91,0.00,,,0.00,perl,2013-12-25 08:14:00,
2013-12-25 03:19:00,16.1,13.9,30.55,NNE,30,0.0,0.0,91,0.00,,,0.00,perl,2013-12-25 08:19:00,
2013-12-25 03:24:00,16.1,13.9,30.55,NNE,30,0.0,0.0,91,0.00,,,0.00,perl,2013-12-25 08:24:00,
2013-12-25 03:29:00,16.1,13.9,30.55,NNE,30,0.0,0.0,91,0.00,,,0.00,perl,2013-12-25 08:29:00,
2013-12-25 03:34:00,15.9,13.7,30.55,NNE,30,0.0,0.0,91,0.00,,,0.00,perl,2013-12-25 08:34:00,
2013-12-25 03:39:00,15.9,13.7,30.55,NNE,30,0.0,0.0,91,0.00,,,0.00,perl,2013-12-25 08:39:00,
2013-12-25 03:44:00,15.8,13.6,30.55,NNE,29,0.0,0.0,91,0.00,,,0.00,perl,2013-12-25 08:44:00,
2013-12-25 03:49:00,15.7,13.5,30.55,NNE,30,0.0,0.0,91,0.00,,,0.00,perl,2013-12-25 08:49:00,
2013-12-25 03:54:00,15.6,13.4,30.55,NNE,30,0.0,0.0,91,0.00,,,0.00,perl,2013-12-25 08:54:00,
2013-12-25 03:59:00,15.7,13.5,30.55,NNE,30,0.0,0.0,91,0.00,,,0.00,perl,2013-12-25 08:59:00,
2013-12-25 04:04:00,15.7,13.5,30.55,NNE,30,0.0,0.0,91,0.00,,,0.00,perl,2013-12-25 09:04:00,
2013-12-25 04:09:00,15.5,13.3,30.55,NNE,30,0.0,0.0,91,0.00,,,0.00,perl,2013-12-25 09:09:00,
2013-12-25 04:14:00,15.5,13.3,30.54,NNE,30,0.0,0.0,91,0.00,,,0.00,perl,2013-12-25 09:14:00,
2013-12-25 04:19:00,15.5,13.3,30.54,NNE,30,0.0,0.0,91,0.00,,,0.00,perl,2013-12-25 09:19:00,
2013-12-25 04:24:00,15.5,13.3,30.54,NNE,30,0.0,0.0,91,0.00,,,0.00,perl,2013-12-25 09:24:00,
2013-12-25 04:29:00,15.5,13.3,30.53,NNE,30,0.0,0.0,91,0.00,,,0.00,perl,2013-12-25 09:29:00,
2013-12-25 04:34:00,15.5,13.5,30.53,NNE,30,0.0,0.0,92,0.00,,,0.00,perl,2013-12-25 09:34:00,
2013-12-25 04:39:00,15.5,13.5,30.53,NNE,30,0.0,0.0,92,0.00,,,0.00,perl,2013-12-25 09:39:00,
2013-12-25 04:44:00,15.7,13.7,30.53,NNE,30,0.0,0.0,92,0.00,,,0.00,perl,2013-12-25 09:44:00,
2013-12-25 04:49:00,15.6,13.6,30.53,NNE,30,0.0,0.0,92,0.00,,,0.00,perl,2013-12-25 09:49:00,
2013-12-25 04:54:00,15.8,13.8,30.53,NNE,30,0.0,0.0,92,0.00,,,0.00,perl,2013-12-25 09:54:00,
2013-12-25 04:59:00,16.0,14.0,30.53,NNE,30,0.0,0.0,92,0.00,,,0.00,perl,2013-12-25 09:59:00,
2013-12-25 05:04:00,16.1,14.1,30.53,NNE,30,0.0,0.0,92,0.00,,,0.00,perl,2013-12-25 10:04:00,
2013-12-25 05:09:00,16.2,14.0,30.53,NNE,30,0.0,0.0,91,0.00,,,0.00,perl,2013-12-25 10:09:00,
2013-12-25 05:14:00,16.2,14.0,30.52,NNE,30,0.0,0.0,91,0.00,,,0.00,perl,2013-12-25 10:14:00,
2013-12-25 05:19:00,16.4,14.2,30.52,ESE,105,0.0,0.0,91,0.00,,,0.00,perl,2013-12-25 10:19:00,
2013-12-25 05:24:00,16.7,14.2,30.52,ESE,105,0.0,0.0,90,0.00,,,0.00,perl,2013-12-25 10:24:00,
2013-12-25 05:29:00,16.9,14.4,30.52,ESE,105,0.0,0.0,90,0.00,,,0.00,perl,2013-12-25 10:29:00,
2013-12-25 05:34:00,17.1,14.4,30.52,ESE,105,0.0,0.0,89,0.00,,,0.00,perl,2013-12-25 10:34:00,
2013-12-25 05:39:00,17.1,14.4,30.52,ESE,105,0.0,0.0,89,0.00,,,0.00,perl,2013-12-25 10:39:00,
2013-12-25 05:44:00,17.1,14.1,30.52,ESE,105,0.0,0.0,88,0.00,,,0.00,perl,2013-12-25 10:44:00,
2013-12-25 05:49:00,17.1,14.1,30.52,ESE,105,0.0,0.0,88,0.00,,,0.00,perl,2013-12-25 10:49:00,
2013-12-25 05:54:00,17.1,14.1,30.52,ESE,105,0.0,0.0,88,0.00,,,0.00,perl,2013-12-25 10:54:00,
2013-12-25 05:59:00,17.2,14.0,30.53,ESE,105,0.0,0.0,87,0.00,,,0.00,perl,2013-12-25 10:59:00,
2013-12-25 06:04:00,17.2,14.0,30.53,ESE,105,0.0,0.0,87,0.00,,,0.00,perl,2013-12-25 11:04:00,
2013-12-25 06:09:00,17.3,14.1,30.53,ESE,105,0.0,0.0,87,0.00,,,0.00,perl,2013-12-25 11:09:00,
2013-12-25 06:14:00,17.2,14.0,30.52,ESE,105,0.0,0.0,87,0.00,,,0.00,perl,2013-12-25 11:14:00,
2013-12-25 06:19:00,17.0,13.8,30.52,ESE,105,0.0,0.0,87,0.00,,,0.00,perl,2013-12-25 11:19:00,
2013-12-25 06:24:00,16.9,13.9,30.52,ESE,105,0.0,0.0,88,0.00,,,0.00,perl,2013-12-25 11:24:00,
2013-12-25 06:29:00,16.8,13.8,30.52,ESE,105,0.0,0.0,88,0.00,,,0.00,perl,2013-12-25 11:29:00,
2013-12-25 06:34:00,16.7,13.7,30.52,ESE,105,0.0,0.0,88,0.00,,,0.00,perl,2013-12-25 11:34:00,
2013-12-25 06:39:00,16.8,13.8,30.52,ESE,105,0.0,0.0,88,0.00,,,0.00,perl,2013-12-25 11:39:00,
2013-12-25 06:44:00,16.8,13.8,30.52,ESE,105,0.0,0.0,88,0.00,,,0.00,perl,2013-12-25 11:44:00,
2013-12-25 06:49:00,17.0,14.0,30.52,ESE,105,0.0,0.0,88,0.00,,,0.00,perl,2013-12-25 11:49:00,
2013-12-25 06:54:00,16.9,13.9,30.52,ESE,105,0.0,0.0,88,0.00,,,0.00,perl,2013-12-25 11:54:00,
2013-12-25 06:59:00,16.8,14.1,30.52,ESE,105,0.0,0.0,89,0.00,,,0.00,perl,2013-12-25 11:59:00,
2013-12-25 07:04:00,16.6,13.9,30.52,ESE,105,0.0,0.0,89,0.00,,,0.00,perl,2013-12-25 12:04:00,
2013-12-25 07:09:00,16.4,13.7,30.52,ESE,105,0.0,0.0,89,0.00,,,0.00,perl,2013-12-25 12:09:00,
2013-12-25 07:14:00,16.2,13.5,30.52,ESE,105,0.0,0.0,89,0.00,,,0.00,perl,2013-12-25 12:14:00,
2013-12-25 07:19:00,16.1,13.4,30.52,ESE,105,0.0,0.0,89,0.00,,,0.00,perl,2013-12-25 12:19:00,
2013-12-25 07:24:00,16.0,13.3,30.52,ESE,105,0.0,0.0,89,0.00,,,0.00,perl,2013-12-25 12:24:00,
2013-12-25 07:29:00,16.0,13.5,30.52,ESE,105,0.0,0.0,90,0.00,,,0.00,perl,2013-12-25 12:29:00,
2013-12-25 07:34:00,16.1,13.6,30.52,ESE,105,0.0,0.0,90,0.00,,,0.00,perl,2013-12-25 12:34:00,
2013-12-25 07:39:00,16.2,13.7,30.52,ESE,105,0.0,0.0,90,0.00,,,0.00,perl,2013-12-25 12:39:00,
2013-12-25 07:44:00,16.1,13.6,30.52,ESE,105,0.0,0.0,90,0.00,,,0.00,perl,2013-12-25 12:44:00,
2013-12-25 07:49:00,16.0,13.5,30.52,ESE,105,0.0,0.0,90,0.00,,,0.00,perl,2013-12-25 12:49:00,
2013-12-25 07:55:00,15.8,13.3,30.52,ESE,105,0.0,0.0,90,0.00,,,0.00,perl,2013-12-25 12:55:00,
2013-12-25 08:00:00,15.7,13.2,30.52,ESE,105,0.0,0.0,90,0.00,,,0.00,perl,2013-12-25 13:00:00,
2013-12-25 08:05:00,15.6,13.1,30.52,ESE,105,0.0,0.0,90,0.00,,,0.00,perl,2013-12-25 13:05:00,
2013-12-25 08:10:00,15.5,13.0,30.52,ESE,105,0.0,0.0,90,0.00,,,0.00,perl,2013-12-25 13:10:00,
2013-12-25 08:15:00,15.5,13.0,30.51,ESE,105,0.0,0.0,90,0.00,,,0.00,perl,2013-12-25 13:15:00,
2013-12-25 08:20:00,15.5,13.0,30.51,ESE,105,0.0,0.0,90,0.00,,,0.00,perl,2013-12-25 13:20:00,
2013-12-25 08:25:00,15.6,13.4,30.51,ESE,105,0.0,0.0,91,0.00,,,0.00,perl,2013-12-25 13:25:00,
2013-12-25 08:30:00,15.9,13.7,30.51,ESE,105,0.0,0.0,91,0.00,,,0.00,perl,2013-12-25 13:30:00,
2013-12-25 08:35:00,16.3,14.1,30.51,ESE,105,0.0,0.0,91,0.00,,,0.00,perl,2013-12-25 13:35:00,
2013-12-25 08:40:00,16.7,14.5,30.51,ESE,105,0.0,0.0,91,0.00,,,0.00,perl,2013-12-25 13:40:00,
2013-12-25 08:46:00,17.0,14.8,30.50,ESE,105,0.0,0.0,91,0.00,,,0.00,perl,2013-12-25 13:46:00,
2013-12-25 08:51:00,17.2,15.0,30.50,ESE,105,0.0,0.0,91,0.00,,,0.00,perl,2013-12-25 13:51:00,
2013-12-25 08:57:00,17.6,15.4,30.50,ESE,105,0.0,0.0,91,0.00,,,0.00,perl,2013-12-25 13:57:00,
2013-12-25 09:02:00,17.9,15.7,30.51,ESE,105,0.0,0.0,91,0.00,,,0.00,perl,2013-12-25 14:02:00,
2013-12-25 09:07:00,18.2,15.7,30.51,ESE,105,0.0,0.0,90,0.00,,,0.00,perl,2013-12-25 14:07:00,
2013-12-25 09:12:00,18.6,15.9,30.51,ESE,105,0.0,0.0,89,0.00,,,0.00,perl,2013-12-25 14:12:00,
2013-12-25 09:18:00,19.0,16.0,30.51,ESE,105,0.0,0.0,88,0.00,,,0.00,perl,2013-12-25 14:18:00,
2013-12-25 09:23:00,19.2,15.9,30.51,ESE,105,0.0,0.0,87,0.00,,,0.00,perl,2013-12-25 14:23:00,
2013-12-25 09:28:00,19.5,16.2,30.51,ESE,105,0.0,0.0,87,0.00,,,0.00,perl,2013-12-25 14:28:00,
2013-12-25 09:34:00,19.7,16.2,30.52,ESE,104,0.0,0.0,86,0.00,,,0.00,perl,2013-12-25 14:34:00,
2013-12-25 09:39:00,20.1,16.6,30.52,ESE,105,0.0,0.0,86,0.00,,,0.00,perl,2013-12-25 14:39:00,
2013-12-25 09:44:00,20.4,16.6,30.51,ESE,105,0.0,0.0,85,0.00,,,0.00,perl,2013-12-25 14:44:00,
2013-12-25 09:49:00,20.7,16.6,30.51,ESE,105,0.0,0.0,84,0.00,,,0.00,perl,2013-12-25 14:49:00,
2013-12-25 09:54:00,21.1,17.0,30.51,SSE,157,0.0,0.0,84,0.00,,,0.00,perl,2013-12-25 14:54:00,
2013-12-25 09:59:00,21.7,17.9,30.51,SSW,209,0.0,0.0,85,0.00,,,0.00,perl,2013-12-25 14:59:00,
2013-12-25 10:04:00,22.2,18.1,30.51,SSW,209,0.0,0.0,84,0.00,,,0.00,perl,2013-12-25 15:04:00,
2013-12-25 10:09:00,22.7,18.3,30.51,SSW,206,0.0,0.0,83,0.00,,,0.00,perl,2013-12-25 15:09:00,
2013-12-25 10:14:00,23.0,18.3,30.51,SSW,206,0.0,0.0,82,0.00,,,0.00,perl,2013-12-25 15:14:00,
2013-12-25 10:19:00,23.4,19.0,30.51,SSW,201,0.0,0.0,83,0.00,,,0.00,perl,2013-12-25 15:19:00,
2013-12-25 10:24:00,23.9,19.2,30.51,SSW,195,0.0,0.0,82,0.00,,,0.00,perl,2013-12-25 15:24:00,
2013-12-25 10:29:00,24.4,19.4,30.51,SSW,195,0.0,0.0,81,0.00,,,0.00,perl,2013-12-25 15:29:00,
2013-12-25 10:34:00,24.7,19.4,30.51,ESE,119,0.0,0.0,80,0.00,,,0.00,perl,2013-12-25 15:34:00,
2013-12-25 10:39:00,24.9,19.6,30.51,ESE,119,0.0,0.0,80,0.00,,,0.00,perl,2013-12-25 15:39:00,
2013-12-25 10:44:00,25.1,19.2,30.50,ESE,119,0.0,0.0,78,0.00,,,0.00,perl,2013-12-25 15:44:00,
2013-12-25 10:49:00,25.2,19.3,30.50,ESE,113,0.0,0.0,78,0.00,,,0.00,perl,2013-12-25 15:49:00,
2013-12-25 10:54:00,25.4,19.5,30.50,ESE,115,0.0,0.0,78,0.00,,,0.00,perl,2013-12-25 15:54:00,
2013-12-25 10:59:00,25.7,19.5,30.50,ESE,115,0.0,0.0,77,0.00,,,0.00,perl,2013-12-25 15:59:00,
2013-12-25 11:04:00,26.1,19.9,30.50,ESE,109,0.0,0.0,77,0.00,,,0.00,perl,2013-12-25 16:04:00,
2013-12-25 11:10:00,26.6,20.1,30.50,SW,217,2.0,0.0,76,0.00,,,0.00,perl,2013-12-25 16:10:00,
2013-12-25 11:15:00,27.3,20.1,30.49,SW,227,0.0,1.0,74,0.00,,,0.00,perl,2013-12-25 16:15:00,
2013-12-25 11:20:00,27.9,19.8,30.49,SSW,207,0.0,1.0,71,0.00,,,0.00,perl,2013-12-25 16:20:00,
2013-12-25 11:25:00,28.4,20.2,30.49,SW,225,1.0,0.0,71,0.00,,,0.00,perl,2013-12-25 16:25:00,
2013-12-25 11:30:00,28.9,20.4,30.49,SSW,213,3.0,3.0,70,0.00,,,0.00,perl,2013-12-25 16:30:00,
2013-12-25 11:35:00,29.7,19.8,30.49,SW,219,2.0,2.0,66,0.00,,,0.00,perl,2013-12-25 16:35:00,
2013-12-25 11:40:00,30.1,18.7,30.49,WSW,254,1.0,2.0,62,0.00,,,0.00,perl,2013-12-25 16:40:00,
2013-12-25 11:45:00,30.1,19.8,30.48,SSW,211,3.0,3.0,65,0.00,,,0.00,perl,2013-12-25 16:45:00,
2013-12-25 11:50:00,30.7,19.6,30.48,SSW,213,0.0,0.0,63,0.00,,,0.00,perl,2013-12-25 16:50:00,
2013-12-25 11:55:00,31.2,20.1,30.48,SSE,153,0.0,0.0,63,0.00,,,0.00,perl,2013-12-25 16:55:00,
2013-12-25 12:00:00,31.9,20.0,30.46,SW,214,2.0,2.0,61,0.00,,,0.00,perl,2013-12-25 17:00:00,
2013-12-25 12:05:00,32.4,20.5,30.46,ESE,109,0.0,1.0,61,0.00,,,0.00,perl,2013-12-25 17:05:00,
2013-12-25 12:10:00,32.5,19.8,30.46,WSW,244,2.0,2.0,59,0.00,,,0.00,perl,2013-12-25 17:10:00,
2013-12-25 12:15:00,32.6,20.3,30.45,SW,214,0.0,1.0,60,0.00,,,0.00,perl,2013-12-25 17:15:00,
2013-12-25 12:20:00,33.0,19.0,30.45,WSW,248,1.0,1.0,56,0.00,,,0.00,perl,2013-12-25 17:20:00,
2013-12-25 12:25:00,33.2,20.0,30.45,SSW,210,0.0,2.0,58,0.00,,,0.00,perl,2013-12-25 17:25:00,
2013-12-25 12:30:00,33.6,19.1,30.44,WSW,244,3.0,3.0,55,0.00,,,0.00,perl,2013-12-25 17:30:00,
2013-12-25 12:36:00,33.7,18.8,30.44,South,179,1.0,2.0,54,0.00,,,0.00,perl,2013-12-25 17:36:00,
2013-12-25 12:41:00,34.2,20.1,30.44,SSE,163,0.0,1.0,56,0.00,,,0.00,perl,2013-12-25 17:41:00,
2013-12-25 12:47:00,35.3,20.3,30.43,SSW,209,0.0,1.0,54,0.00,,,0.00,perl,2013-12-25 17:47:00,
2013-12-25 12:52:00,36.2,21.6,30.43,SSW,199,1.0,1.0,55,0.00,,,0.00,perl,2013-12-25 17:52:00,
2013-12-25 12:57:00,36.9,21.3,30.43,SW,222,0.0,1.0,53,0.00,,,0.00,perl,2013-12-25 17:57:00,
2013-12-25 13:02:00,36.8,20.8,30.42,SW,219,1.0,2.0,52,0.00,,,0.00,perl,2013-12-25 18:02:00,
2013-12-25 13:08:00,36.8,20.3,30.42,South,176,1.0,2.0,51,0.00,,,0.00,perl,2013-12-25 18:08:00,
2013-12-25 13:13:00,36.6,20.6,30.42,SSW,202,0.0,3.0,52,0.00,,,0.00,perl,2013-12-25 18:13:00,
2013-12-25 13:18:00,36.7,20.7,30.42,South,188,0.0,2.0,52,0.00,,,0.00,perl,2013-12-25 18:18:00,
2013-12-25 13:23:00,37.1,19.6,30.42,East,79,1.0,1.0,49,0.00,,,0.00,perl,2013-12-25 18:23:00,
2013-12-25 13:28:00,37.1,19.6,30.42,ESE,120,0.0,1.0,49,0.00,,,0.00,perl,2013-12-25 18:28:00,
2013-12-25 13:33:00,37.5,21.0,30.41,SW,215,1.0,1.0,51,0.00,,,0.00,perl,2013-12-25 18:33:00,
2013-12-25 13:38:00,38.2,21.1,30.41,SSW,194,0.0,2.0,50,0.00,,,0.00,perl,2013-12-25 18:38:00,
2013-12-25 13:43:00,38.4,20.3,30.41,WSW,257,3.0,3.0,48,0.00,,,0.00,perl,2013-12-25 18:43:00,
2013-12-25 13:48:00,38.4,21.3,30.40,SSW,212,1.0,2.0,50,0.00,,,0.00,perl,2013-12-25 18:48:00,
2013-12-25 13:53:00,38.9,20.8,30.40,SW,232,3.0,3.0,48,0.00,,,0.00,perl,2013-12-25 18:53:00,
2013-12-25 13:58:00,39.2,21.1,30.40,SSE,148,2.0,2.0,48,0.00,,,0.00,perl,2013-12-25 18:58:00,
2013-12-25 14:04:00,39.5,21.3,30.39,SW,227,0.0,2.0,48,0.00,,,0.00,perl,2013-12-25 19:04:00,
2013-12-25 14:10:00,39.3,21.2,30.39,SSW,203,4.0,4.0,48,0.00,,,0.00,perl,2013-12-25 19:10:00,
2013-12-25 14:15:00,39.4,21.2,30.38,SW,231,2.0,3.0,48,0.00,,,0.00,perl,2013-12-25 19:15:00,
2013-12-25 14:20:00,39.3,20.6,30.38,SW,225,4.0,4.0,47,0.00,,,0.00,perl,2013-12-25 19:20:00,
2013-12-25 14:25:00,38.7,20.1,30.38,SSW,204,0.0,4.0,47,0.00,,,0.00,perl,2013-12-25 19:25:00,
2013-12-25 14:30:00,39.2,20.6,30.37,SSW,192,0.0,3.0,47,0.00,,,0.00,perl,2013-12-25 19:30:00,
2013-12-25 14:35:00,39.5,20.8,30.37,South,178,0.0,2.0,47,0.00,,,0.00,perl,2013-12-25 19:35:00,
2013-12-25 14:40:00,39.6,21.4,30.37,SW,223,5.0,5.0,48,0.00,,,0.00,perl,2013-12-25 19:40:00,
2013-12-25 14:44:00,39.5,20.8,30.36,South,178,0.0,1.0,47,0.00,,,0.00,perl,2013-12-25 19:44:00,
2013-12-25 14:49:00,39.6,21.9,30.36,SSW,207,1.0,1.0,49,0.00,,,0.00,perl,2013-12-25 19:49:00,
2013-12-25 14:54:00,39.8,21.6,30.36,SSW,213,3.0,3.0,48,0.00,,,0.00,perl,2013-12-25 19:54:00,
2013-12-25 14:59:00,39.5,20.3,30.36,SSE,152,2.0,2.0,46,0.00,,,0.00,perl,2013-12-25 19:59:00,
2013-12-25 15:04:00,39.1,19.9,30.36,SW,235,3.0,3.0,46,0.00,,,0.00,perl,2013-12-25 20:04:00,
2013-12-25 15:10:00,39.0,20.4,30.36,SW,223,7.0,7.0,47,0.00,,,0.00,perl,2013-12-25 20:10:00,
2013-12-25 15:15:00,39.0,20.9,30.35,SSW,213,5.0,5.0,48,0.00,,,0.00,perl,2013-12-25 20:15:00,
2013-12-25 15:20:00,39.1,20.5,30.35,SE,134,4.0,4.0,47,0.00,,,0.00,perl,2013-12-25 20:20:00,
2013-12-25 15:25:00,38.8,19.7,30.35,SW,214,3.0,5.0,46,0.00,,,0.00,perl,2013-12-25 20:25:00,
2013-12-25 15:30:00,38.7,20.1,30.35,SW,226,2.0,3.0,47,0.00,,,0.00,perl,2013-12-25 20:30:00,
2013-12-25 15:36:00,39.1,21.0,30.35,SE,136,1.0,2.0,48,0.00,,,0.00,perl,2013-12-25 20:36:00,
2013-12-25 15:41:00,39.3,20.1,30.35,SW,222,0.0,3.0,46,0.00,,,0.00,perl,2013-12-25 20:41:00,
2013-12-25 15:46:00,39.3,20.1,30.35,SW,227,1.0,3.0,46,0.00,,,0.00,perl,2013-12-25 20:46:00,
2013-12-25 15:51:00,39.2,20.6,30.35,SSW,199,3.0,3.0,47,0.00,,,0.00,perl,2013-12-25 20:51:00,
2013-12-25 15:56:00,39.1,20.5,30.35,WSW,253,5.0,5.0,47,0.00,,,0.00,perl,2013-12-25 20:56:00,
2013-12-25 16:01:00,38.9,20.3,30.35,WSW,240,2.0,2.0,47,0.00,,,0.00,perl,2013-12-25 21:01:00,
2013-12-25 16:06:00,38.8,20.2,30.35,SSW,207,0.0,3.0,47,0.00,,,0.00,perl,2013-12-25 21:06:00,
2013-12-25 16:11:00,38.9,20.3,30.35,South,173,1.0,2.0,47,0.00,,,0.00,perl,2013-12-25 21:11:00,
2013-12-25 16:16:00,39.1,21.0,30.35,ESE,117,0.0,1.0,48,0.00,,,0.00,perl,2013-12-25 21:16:00,
2013-12-25 16:22:00,39.4,20.7,30.35,SSW,203,0.0,1.0,47,0.00,,,0.00,perl,2013-12-25 21:22:00,
2013-12-25 16:27:00,39.4,21.2,30.35,SW,234,4.0,4.0,48,0.00,,,0.00,perl,2013-12-25 21:27:00,
2013-12-25 16:32:00,39.1,20.5,30.35,SW,232,3.0,3.0,47,0.00,,,0.00,perl,2013-12-25 21:32:00,
2013-12-25 16:38:00,38.7,20.6,30.35,SW,218,1.0,2.0,48,0.00,,,0.00,perl,2013-12-25 21:38:00,
2013-12-25 16:43:00,38.5,20.4,30.35,South,179,0.0,1.0,48,0.00,,,0.00,perl,2013-12-25 21:43:00,
2013-12-25 16:48:00,38.3,20.7,30.34,South,171,0.0,0.0,49,0.00,,,0.00,perl,2013-12-25 21:48:00,
2013-12-25 16:53:00,38.1,20.5,30.34,SE,134,0.0,0.0,49,0.00,,,0.00,perl,2013-12-25 21:53:00,
2013-12-25 16:58:00,37.9,20.4,30.34,SE,136,0.0,0.0,49,0.00,,,0.00,perl,2013-12-25 21:58:00,
2013-12-25 17:03:00,37.6,20.6,30.34,SE,134,0.0,0.0,50,0.00,,,0.00,perl,2013-12-25 22:03:00,
2013-12-25 17:09:00,37.3,20.3,30.34,SW,228,0.0,0.0,50,0.00,,,0.00,perl,2013-12-25 22:09:00,
2013-12-25 17:14:00,37.0,21.4,30.34,SW,229,0.0,0.0,53,0.00,,,0.00,perl,2013-12-25 22:14:00,
2013-12-25 17:19:00,36.6,21.5,30.34,SW,229,0.0,0.0,54,0.00,,,0.00,perl,2013-12-25 22:19:00,
2013-12-25 17:24:00,36.3,22.5,30.34,SW,227,0.0,0.0,57,0.00,,,0.00,perl,2013-12-25 22:24:00,
2013-12-25 17:29:00,35.9,23.4,30.34,SW,229,0.0,0.0,60,0.00,,,0.00,perl,2013-12-25 22:29:00,
2013-12-25 17:34:00,35.3,24.4,30.34,SW,229,0.0,0.0,64,0.00,,,0.00,perl,2013-12-25 22:34:00,
2013-12-25 17:39:00,34.8,23.5,30.34,SW,229,0.0,0.0,63,0.00,,,0.00,perl,2013-12-25 22:39:00,
2013-12-25 17:44:00,34.4,23.9,30.34,SW,229,0.0,0.0,65,0.00,,,0.00,perl,2013-12-25 22:44:00,
2013-12-25 17:49:00,34.4,23.2,30.34,SW,227,0.0,0.0,63,0.00,,,0.00,perl,2013-12-25 22:49:00,
2013-12-25 17:54:00,34.1,25.1,30.34,SW,229,0.0,0.0,69,0.00,,,0.00,perl,2013-12-25 22:54:00,
2013-12-25 17:59:00,33.7,24.0,30.34,SW,229,0.0,0.0,67,0.00,,,0.00,perl,2013-12-25 22:59:00,
2013-12-25 18:04:00,33.5,24.1,30.34,SW,229,0.0,0.0,68,0.00,,,0.00,perl,2013-12-25 23:04:00,
2013-12-25 18:09:00,33.4,24.7,30.34,SW,229,0.0,0.0,70,0.00,,,0.00,perl,2013-12-25 23:09:00,
2013-12-25 18:14:00,33.3,25.3,30.34,SW,229,0.0,0.0,72,0.00,,,0.00,perl,2013-12-25 23:14:00,
2013-12-25 18:19:00,33.2,25.5,30.33,SW,229,0.0,0.0,73,0.00,,,0.00,perl,2013-12-25 23:19:00,
2013-12-25 18:24:00,33.2,26.2,30.33,SW,229,0.0,0.0,75,0.00,,,0.00,perl,2013-12-25 23:24:00,
2013-12-25 18:29:00,33.0,26.0,30.33,SW,228,0.0,0.0,75,0.00,,,0.00,perl,2013-12-25 23:29:00,
2013-12-25 18:34:00,32.9,25.9,30.33,SW,229,0.0,0.0,75,0.00,,,0.00,perl,2013-12-25 23:34:00,
2013-12-25 18:39:00,32.9,26.5,30.33,SW,229,0.0,0.0,77,0.00,,,0.00,perl,2013-12-25 23:39:00,
2013-12-25 18:44:00,32.9,26.5,30.33,SW,227,0.0,0.0,77,0.00,,,0.00,perl,2013-12-25 23:44:00,
2013-12-25 18:49:00,32.9,26.2,30.33,SW,229,0.0,0.0,76,0.00,,,0.00,perl,2013-12-25 23:49:00,
2013-12-25 18:54:00,32.8,25.8,30.33,SW,229,0.0,0.0,75,0.00,,,0.00,perl,2013-12-25 23:54:00,
2013-12-25 18:59:00,32.8,26.1,30.33,SW,229,0.0,0.0,76,0.00,,,0.00,perl,2013-12-25 23:59:00,
2013-12-25 19:04:00,32.8,26.4,30.33,SW,229,0.0,0.0,77,0.00,,,0.00,perl,2013-12-26 00:04:00,
2013-12-25 19:09:00,32.9,26.8,30.33,SW,229,0.0,0.0,78,0.00,,,0.00,perl,2013-12-26 00:09:00,
2013-12-25 19:14:00,32.8,26.1,30.33,SW,229,0.0,0.0,76,0.00,,,0.00,perl,2013-12-26 00:14:00,
2013-12-25 19:19:00,32.8,26.1,30.32,SW,229,0.0,0.0,76,0.00,,,0.00,perl,2013-12-26 00:19:00,
2013-12-25 19:24:00,32.8,26.1,30.32,SW,229,0.0,0.0,76,0.00,,,0.00,perl,2013-12-26 00:24:00,
2013-12-25 19:29:00,32.8,26.4,30.32,SW,228,0.0,0.0,77,0.00,,,0.00,perl,2013-12-26 00:29:00,
2013-12-25 19:34:00,32.8,26.1,30.32,SW,229,0.0,0.0,76,0.00,,,0.00,perl,2013-12-26 00:34:00,
2013-12-25 19:39:00,32.8,26.4,30.32,SW,229,0.0,0.0,77,0.00,,,0.00,perl,2013-12-26 00:39:00,
2013-12-25 19:44:00,32.7,26.0,30.32,SW,228,0.0,0.0,76,0.00,,,0.00,perl,2013-12-26 00:44:00,
2013-12-25 19:49:00,32.7,26.0,30.31,SW,229,0.0,0.0,76,0.00,,,0.00,perl,2013-12-26 00:49:00,
2013-12-25 19:54:00,32.8,26.4,30.31,SW,228,0.0,0.0,77,0.00,,,0.00,perl,2013-12-26 00:54:00,
2013-12-25 19:59:00,32.8,26.4,30.31,SW,227,0.0,0.0,77,0.00,,,0.00,perl,2013-12-26 00:59:00,
2013-12-25 20:04:00,32.9,26.8,30.31,SW,229,0.0,0.0,78,0.00,,,0.00,perl,2013-12-26 01:04:00,
2013-12-25 20:09:00,32.9,26.8,30.31,SW,228,0.0,0.0,78,0.00,,,0.00,perl,2013-12-26 01:09:00,
2013-12-25 20:14:00,32.9,26.8,30.31,SW,229,0.0,0.0,78,0.00,,,0.00,perl,2013-12-26 01:14:00,
2013-12-25 20:19:00,32.8,26.4,30.31,SW,229,0.0,0.0,77,0.00,,,0.00,perl,2013-12-26 01:19:00,
2013-12-25 20:24:00,32.9,26.5,30.31,SW,229,0.0,0.0,77,0.00,,,0.00,perl,2013-12-26 01:24:00,
2013-12-25 20:29:00,32.9,26.8,30.31,SW,229,0.0,0.0,78,0.00,,,0.00,perl,2013-12-26 01:29:00,
2013-12-25 20:34:00,32.9,27.1,30.31,SW,229,0.0,0.0,79,0.00,,,0.00,perl,2013-12-26 01:34:00,
2013-12-25 20:39:00,32.9,27.1,30.31,SW,229,0.0,0.0,79,0.00,,,0.00,perl,2013-12-26 01:39:00,
2013-12-25 20:44:00,32.9,27.1,30.31,SW,229,0.0,0.0,79,0.00,,,0.00,perl,2013-12-26 01:44:00,
2013-12-25 20:49:00,33.0,27.2,30.31,SW,229,0.0,0.0,79,0.00,,,0.00,perl,2013-12-26 01:49:00,
2013-12-25 20:54:00,32.9,26.8,30.31,SW,229,0.0,0.0,78,0.00,,,0.00,perl,2013-12-26 01:54:00,
2013-12-25 20:59:00,33.0,27.2,30.31,SW,229,0.0,0.0,79,0.00,,,0.00,perl,2013-12-26 01:59:00,
2013-12-25 21:04:00,33.0,27.2,30.30,SW,229,0.0,0.0,79,0.00,,,0.00,perl,2013-12-26 02:04:00,
2013-12-25 21:09:00,33.0,27.2,30.30,SW,229,0.0,0.0,79,0.00,,,0.00,perl,2013-12-26 02:09:00,
2013-12-25 21:14:00,33.0,27.5,30.30,SW,229,0.0,0.0,80,0.00,,,0.00,perl,2013-12-26 02:14:00,
2013-12-25 21:19:00,33.1,27.6,30.30,SW,228,0.0,0.0,80,0.00,,,0.00,perl,2013-12-26 02:19:00,
2013-12-25 21:24:00,33.1,27.3,30.30,SW,229,0.0,0.0,79,0.00,,,0.00,perl,2013-12-26 02:24:00,
2013-12-25 21:29:00,33.1,27.3,30.30,SW,229,0.0,0.0,79,0.00,,,0.00,perl,2013-12-26 02:29:00,
2013-12-25 21:34:00,33.1,27.3,30.30,SW,229,0.0,0.0,79,0.00,,,0.00,perl,2013-12-26 02:34:00,
2013-12-25 21:39:00,33.2,27.4,30.30,SW,229,0.0,0.0,79,0.00,,,0.00,perl,2013-12-26 02:39:00,
2013-12-25 21:44:00,33.2,27.4,30.30,SW,229,0.0,0.0,79,0.00,,,0.00,perl,2013-12-26 02:44:00,
2013-12-25 21:49:00,33.2,27.1,30.30,SW,227,0.0,0.0,78,0.00,,,0.00,perl,2013-12-26 02:49:00,
2013-12-25 21:54:00,33.2,27.4,30.30,SW,229,0.0,0.0,79,0.00,,,0.00,perl,2013-12-26 02:54:00,
2013-12-25 21:59:00,33.2,27.4,30.30,SW,229,0.0,0.0,79,0.00,,,0.00,perl,2013-12-26 02:59:00,
2013-12-25 22:04:00,33.3,27.5,30.29,SW,229,0.0,0.0,79,0.00,,,0.00,perl,2013-12-26 03:04:00,
2013-12-25 22:09:00,33.3,27.5,30.29,SW,229,0.0,0.0,79,0.00,,,0.00,perl,2013-12-26 03:09:00,
2013-12-25 22:14:00,33.2,27.4,30.29,SW,229,0.0,0.0,79,0.00,,,0.00,perl,2013-12-26 03:14:00,
2013-12-25 22:19:00,33.2,27.4,30.28,SW,229,0.0,0.0,79,0.00,,,0.00,perl,2013-12-26 03:19:00,
2013-12-25 22:24:00,33.2,27.4,30.28,SW,229,0.0,0.0,79,0.00,,,0.00,perl,2013-12-26 03:24:00,
2013-12-25 22:29:00,33.2,27.7,30.28,SW,229,0.0,0.0,80,0.00,,,0.00,perl,2013-12-26 03:29:00,
2013-12-25 22:34:00,33.3,27.8,30.28,SW,228,0.0,0.0,80,0.00,,,0.00,perl,2013-12-26 03:34:00,
2013-12-25 22:39:00,33.3,27.8,30.28,SW,229,0.0,0.0,80,0.00,,,0.00,perl,2013-12-26 03:39:00,
2013-12-25 22:44:00,33.3,27.8,30.28,SW,228,0.0,0.0,80,0.00,,,0.00,perl,2013-12-26 03:44:00,
2013-12-25 22:49:00,33.3,27.8,30.28,SW,229,0.0,0.0,80,0.00,,,0.00,perl,2013-12-26 03:49:00,
2013-12-25 22:54:00,33.3,27.8,30.28,SW,229,0.0,0.0,80,0.00,,,0.00,perl,2013-12-26 03:54:00,
2013-12-25 22:59:00,33.4,27.6,30.28,SW,229,0.0,0.0,79,0.00,,,0.00,perl,2013-12-26 03:59:00,
2013-12-25 23:04:00,33.5,27.7,30.28,SW,229,0.0,0.0,79,0.00,,,0.00,perl,2013-12-26 04:04:00,
2013-12-25 23:09:00,33.6,27.2,30.28,SW,229,0.0,0.0,77,0.00,,,0.00,perl,2013-12-26 04:09:00,
2013-12-25 23:14:00,33.9,27.2,30.28,WSW,242,0.0,0.0,76,0.00,,,0.00,perl,2013-12-26 04:14:00,
2013-12-25 23:19:00,34.1,27.7,30.28,WSW,242,0.0,0.0,77,0.00,,,0.00,perl,2013-12-26 04:19:00,
2013-12-25 23:24:00,34.1,28.3,30.28,WSW,241,0.0,0.0,79,0.00,,,0.00,perl,2013-12-26 04:24:00,
2013-12-25 23:29:00,34.1,28.0,30.28,WSW,257,0.0,0.0,78,0.00,,,0.00,perl,2013-12-26 04:29:00,
2013-12-25 23:34:00,34.4,28.3,30.29,WSW,257,0.0,0.0,78,0.00,,,0.00,perl,2013-12-26 04:34:00,
2013-12-25 23:39:00,34.4,28.6,30.29,WSW,257,0.0,0.0,79,0.00,,,0.00,perl,2013-12-26 04:39:00,
2013-12-25 23:44:00,34.3,28.8,30.29,WSW,256,0.0,0.0,80,0.00,,,0.00,perl,2013-12-26 04:44:00,
2013-12-25 23:49:00,34.2,28.7,30.28,WSW,257,0.0,0.0,80,0.00,,,0.00,perl,2013-12-26 04:49:00,
2013-12-25 23:54:00,34.2,28.7,30.28,WSW,257,0.0,0.0,80,0.00,,,0.00,perl,2013-12-26 04:54:00,
2013-12-25 23:59:00,34.4,28.9,30.28,WSW,257,0.0,0.0,80,0.00,,,0.00,perl,2013-12-26 04:59:00,